Tracking 27112 objects as of 27-Mar-2023
HD Live streaming from Space Station
objects crossing your sky now

AMC-2 (GE-2)

Track AMC-2 (GE-2) now!
AMC-2 (GE-2) is classified as:


NORAD ID: 24713
Int'l Code: 1997-002A
Perigee: 36,001.3 km
Apogee: 36,037.0 km
Inclination: 8.4 °
Period: 1,447.6 minutes
Semi major axis: 42390 km
RCS: 28.4382 m2 (large)
Launch date: January 30, 1997
Source: SOCIETE EUROPEENNE DES SATELLITES (SES)
Launch site: FRENCH GUIANA (FRGUI)

Broadcasting, business, cable; CONUS, Hawaii, Caribbean, southern Canada; 24 Ku- and 24 C-band
Your satellite tracking list
Your tracking list is empty




NASA's NSSDC Master Catalog

Two Line Element Set (TLE):
1 24713U 97002A   23085.63612556 -.00000074  00000-0  00000-0 0  9999
2 24713   8.3770  54.4562 0004218  32.1980 337.4298  0.99473128 95708
Source of the keplerian elements: AFSPC